MOZ.5/SAFIR/RUBIN 5/SL-8 - Orbit

View from above orbital plane
View from above orbital plane
View from above satellite
View from above satellite

Ground track
Ground track

The orbit data is extracted from the following two-line orbital elements,

1 28898U 05043G   13143.68685262  .00000360  00000-0  85500-4 0  5236
2 28898 097.8561 349.6007 0020598 176.7896 232.5572 14.59088706403124
Epoch (UTC): 23 May 2013 16:29:04
Eccentricity: 0.0020598
inclination: 97.8561°
perigee height: 681 km
apogee height: 710 km
right ascension of ascending node: 349.6007°
argument of perigee: 176.7896°
revolutions per day: 14.59088706
mean anomaly at epoch: 232.5572°
orbit number at epoch: 40312

The dashed part of the orbit path shows where the satellite is in the earth's shadow,  

Developed and maintained by Chris Peat, Heavens-Above GmbH. Please read the updated FAQ before sending e-mail. Imprint. DLR